Weather in Beslan

Russia / Republic of North Ossetia — Alania     43°11′37″N   44°32′01″E
temp.,
°C
wind,
m/s
gust,
m/s
humid.,
%
clouds,
%
prec.,
mm/h
press.,
hPa
HPBL,
m
18 september, sat
sat1800:00+12e229189 0.0 101655
03:00+11e129499 0.0 101622
06:00+10ese119568 0.0 101711
09:00+14nne1278100 0.0 1016303
12:00+21ne225038 0.0 10151254
15:00+23ene334638 0.0 10141657
18:00+19e47629 0.0 1014150
21:00+15e478010 0.0 1015154
19 september, sun
sun1900:00+13e24935 0.0 101573
03:00+12ne11937 0.0 101511
06:00+12ese1193100 0.0 101510
09:00+19ne116489 0.0 1015458
12:00+24ne2247100 0.0 10131203
15:00+25ene3243100 0.0 10121572
18:00+20e355557 0.0 101283
21:00+17e356657 0.0 1013114
20 september, mon
mon2000:00+15ese117944 0.0 101311
03:00+14ssw018593 0.0 101310
06:00+13se118314 0.0 101310
09:00+20nw215715 0.0 1013388
12:00+25nnw214014 0.0 10121395
15:00+26nne3237100 0.0 10111932
18:00+17e227889 2.6 101420
21:00+16sw11848 4.3 101512
21 september, tue
tue2100:00+15s11841 0.0 101511
03:00+15sse11865 0.0 101511
06:00+14s11865 0.0 101611
09:00+20ese12615 0.0 1015385
12:00+26ene334028 0.0 10121215
15:00+27e33355 0.0 10111516
18:00+22e344921 0.0 101146
21:00+17w3572100 0.2 101585
22 september, wed
wed2200:00+15w1186100 0.0 101519
03:00+15nw2292100 0.0 101531
06:00+15wsw0195100 0.3 1016193
09:00+16ne1192100 0.9 1016199
12:00+16ne3489100 0.8 1016444
15:00+12nw2289100 2.1 1017263
18:00+12nw1190100 0.6 1017191
21:00+11nnw2291100 0.8 1017216